www.pogodaiklimat.ru

Погода и климат >> Архив погоды >> Россия >> Московская область >> Красногорск


ПОГОДА в Красногорске

АРХИВ ПОГОДЫ в Красногорске

Время (UTC), дата Ветер
(напр.,м/с)
 
Видим.   Явления Облачность Т
(С)
Тd
(С)
f
(%)
Тe
(С)
Тes
(С)
Комфортность P
(гПа)
Po
(гПа)
Тmin
(С)
Tmax
(С)
R
(мм)
R24
(мм)
S
(см)
00 14.06 С 1 н/о н/о +9.2 +6.0 80 +9 +9 прохладно 1013.4 996.8
03 14.06 СВ 1 н/о н/о +10.3 +5.2 71 +10 +10 прохладно 1015.0 998.5 +8.6
06 14.06 С 1 н/о н/о +13.2 +3.5 52 +14 +14 прохладно 1015.8 999.3 +8.6
09 14.06 С 2 н/о н/о +13.7 +3.2 49 +13 +13 холодно 1016.9 1000.5
12 14.06 В 2 н/о н/о +17.3 +4.5 43 +18 +18 по сезону 1016.5 1000.3
15 14.06 В 2
{12}
н/о н/о +16.6 +5.0 46 +17 +17 по сезону 1016.3 1000.1
18 14.06 СВ 1
{15}
н/о н/о +15.1 +2.8 44 +16 +16 по сезону 1016.9 1000.5 +17.9
21 14.06 ЮВ 4
{15}
н/о н/о +12.7 +7.0 68 +11 +11 прохладно 1018.1 1001.7
00 15.06 СВ 1
{13}
н/о н/о +12.8 +5.0 59 +13 +13 по сезону 1018.7 1002.2
03 15.06 В 1
{13}
н/о н/о +13.8 +4.8 55 +14 +14 по сезону 1019.5 1003.0 +11.5
06 15.06 В 2 н/о н/о +17.6 +3.5 39 +18 +18 тепло 1019.6 1003.3 +11.5
09 15.06 В 2 н/о н/о +19.3 +1.7 31 +20 +20 тепло 1019.7 1003.6
12 15.06 В 1 н/о н/о +21.3 +2.5 29 +21 +21 комфорт 1019.1 1003.1
15 15.06 В 1
{12}
н/о н/о +20.5 +2.7 31 +22 +22 комфорт 1018.6 1002.5
18 15.06 штиль 0
{12}
н/о н/о +17.4 +4.0 41 +17 +17 по сезону 1018.7 1002.5 +21.5
00 16.06 штиль 0 н/о н/о +10.6 +7.4 81 +10 +10 по сезону 1021.0 1004.4
03 16.06 штиль 0 н/о н/о +13.3 +9.5 78 +13 +13 по сезону 1021.8 1005.3 +9.0
06 16.06 В 1 н/о н/о +19.8 +4.2 36 +21 +21 комфорт 1021.8 1005.7 +9.0
09 16.06 С 1 н/о н/о +22.3 +3.4 29 +22 +22 комфорт 1021.2 1005.2
12 16.06 ЮВ 1 н/о н/о +23.6 +5.0 30 +23 +23 комфорт 1020.2 1004.3
15 16.06 ЮВ 1 н/о н/о +23.0 +4.5 30 +23 +23 комфорт 1019.3 1003.3
18 16.06 штиль 0 н/о н/о +19.1 +5.5 41 +19 +19 тепло 1019.7 1003.5 +24.2
21 16.06 штиль 0 н/о н/о +13.2 +10.5 84 +13 +13 по сезону 1020.7 1004.3
00 17.06 штиль 0 н/о н/о +11.1 +9.7 91 +10 +10 по сезону 1021.0 1004.4
03 17.06 штиль 0 н/о н/о +13.5 +12.0 91 +13 +13 по сезону 1021.5 1005.1 +10.1
06 17.06 штиль 0 н/о н/о +22.9 +7.5 37 +24 +24 комфорт 1020.5 1004.6 +10.1
09 17.06 ЮВ 1 н/о н/о +25.0 +6.7 31 +25 +25 комфорт 1019.7 1003.9
12 17.06 В 1 н/о н/о +26.2 +7.2 30 +26 +26 жарко 1018.4 1002.6
15 17.06 ЮВ 1 н/о н/о +23.6 +8.0 37 +24 +24 комфорт 1017.7 1001.8
18 17.06 штиль 0 н/о н/о +21.6 +7.7 41 +23 +23 комфорт 1017.6 1001.6 +26.5
21 17.06 штиль 0 н/о н/о +15.1 +12.5 84 +15 +15 по сезону 1018.3 1002.0
00 18.06 штиль 0 н/о н/о +12.2 +11.0 92 +12 +12 по сезону 1018.8 1002.3
03 18.06 штиль 0 н/о н/о +14.4 +13.0 91 +14 +14 по сезону 1018.2 1001.9 +11.8
09 18.06 штиль 0 н/о н/о +26.3 +8.2 32 +26 +26 жарко 1016.4 1000.7
12 18.06 ЮЗ 1 н/о н/о +27.9 +7.2 27 +27 +27 жарко 1015.4 999.8
15 18.06 Ю 1 н/о н/о +26.5 +8.0 31 +26 +26 жарко 1014.2 998.5
18 18.06 штиль 0 н/о н/о +21.5 +10.8 51 +23 +23 комфорт 1014.1 998.2 +28.2
21 18.06 штиль 0 н/о н/о +15.9 +13.7 87 +16 +16 тепло 1014.5 998.3
00 19.06 штиль 0 н/о н/о +14.5 +13.0 91 +14 +14 тепло 1014.5 998.2
03 19.06 штиль 0 н/о н/о +17.0 +14.0 82 +17 +17 тепло 1013.9 997.8 +14.3
06 19.06 З 1 н/о н/о +21.0 +15.8 72 +26 +26 душно 1013.3 997.4 +14.3
09 19.06 З 2 н/о н/о +25.0 +12.8 47 +27 +27 жарко 1012.1 996.4
12 19.06 ЮЗ 1 н/о н/о +27.9 +11.8 37 +29 +29 жарко 1010.3 994.8
15 19.06 штиль 0 н/о н/о +22.5 +15.7 65 +26 +26 жарко 1009.8 994.1 0.2
18 19.06 штиль 0 н/о н/о +20.3 +14.7 70 +23 +23 комфорт 1009.0 993.1 +28.1 0.2
00 20.06 ЮЗ 2 н/о н/о +18.1 +12.2 68 +19 +19 тепло 1007.3 991.4

 

Местоположение метеостанции Красногорск (Московская область, Россия): широта 55.81 долгота 37.34 высота над уровнем моря 136 м.

В архиве по умолчанию представлена погода в Красногорске за последнюю неделю. Архивные данные за месяц целиком и за предыдущие месяцы, начиная с января 2011 года, Вы можете получить, выбрав интересующий диапазон дат из раскрывающегося списка и нажав кнопку "Ввод!".


*Определитесь, кто Вы:
робот инопланетянин человек

Внимание! Время в таблицах - всемирное. Для получения местного времени необходимо прибавить поправку, которая в Красногорске равна 3 ч.

Смотрите также архив погоды в соседних городах и на ближайших метеорологических станциях:

Погода в Москве (Строгино) (город Москва, Россия) (4 км)
Погода в Москве (Тушино) (город Москва, Россия) (8 км)
Погода в Немчиновке (город Москва, Россия) (12 км)
Погода в Подмосковной (Московская область, Россия) (13 км)
Погода в Долгопрудном (Московская область, Россия) (17 км)
Погода в Москве (город Москва, Россия) (18 км)
Погода в Шереметьево (Московская область, Россия) (18 км)
Погода в Москве (Балчуг) (город Москва, Россия) (19 км)
Погода в Внуково (Московская область, Россия) (24 км)
Погода в Толстопальцево (город Москва, Россия) (26 км)

Пояснения к столбцам:

Ветер - указаны скорость ветра в м/с - средняя за 10 мин, порывы в срок и между сроками (в фигурных скобках) и направление, откуда дует ветер: С - северный, СВ - северо-восточный, В - восточный, ЮВ - юго-восточный, Ю - южный, ЮЗ - юго-западный, З - западный, СЗ - северо-западный.
Видимость - горизонтальная дальность видимости в метрах или километрах. При видимости от 1 до 10 км при отсутствии осадков обычно наблюдается дымка, при ухудшении видимости до 1 км и менее - туман. В сухую погоду видимость может ухудшаться дымом, пылью или мглою.
Явления - указаны атмосферные явления, наблюдавшиеся в срок или в последний час перед сроком; фигурными скобками обозначены явления, наблюдавшиеся между сроками (за 1-3 часа до срока); квадратными скобками обозначены град или гололедные отложения с указанием их диаметра в мм.
Облачность - указаны через наклонную черту общая и нижняя облачность в баллах и высота нижней границы облаков в метрах; квадратными скобками обозначены формы облаков: Ci - перистые, Cs - перисто-слоистые, Cc - перисто-кучевые, Ac - высококучевые, As - высокослоистые, Sc - слоисто-кучевые, Ns - слоисто-дождевые, Cu - кучевые, Cb - кучево-дождевые. Подробнее классификацию облаков см. в Атласе облаков (PDF).
T - Температура воздуха - температура, измеренная на высоте 2 м над землей.
Td - Температура точки росы - температура, при понижении до которой содержащийся в воздухе водяной пар достигнет насыщения.
f - Относительная влажность воздуха - влажноcть воздуха, измеренная на высоте 2 м над землей.
Te - Эффективная температура - температура, которую ощущает одетый по сезону человек в тени. Характеристика душности погоды. При расчете учитывается влияние влажности воздуха и скорости ветра на теплоощущения человека.
Tes - Эффективная температура на солнце - температура, которую ощущает человек, с поправкой на солнечный нагрев. Характеристика знойности погоды. Зависит от высоты солнца над горизонтом, облачности и скорости ветра. Ночью, в пасмурную погоду, а также при ветре 12 м/с и более поправка равна нулю.
P - Атмосферное давление - приведенное к уровню моря атмосферное давление.
Po - Атмосферное давление - измеренное на уровне метеостанции атмосферное давление.
Tmin - Минимальная температура - минимум температуры воздуха на высоте 2 м над землей.
Tmax - Максимальная температура - максимум температуры воздуха на высоте 2 м над землей.
R - Количество осадков - Количество выпавших осадков за период времени, мм. При наведении курсора мыши на число - период времени, за который выпало указанное количество осадков.
R24 - Количество осадков - Количество выпавших осадков за 24 часа, мм.
S - Снежный покров - Высота снежного покрова, см. При наведении курсора мыши на число - состояние снежного покрова и степень покрытия местности в баллах.